Weather History for Comanche, TX

Change the Weather History Date:

Friday, November 2, 2012

  Actual Average (KSEP) Record (KSEP)
Temperature  
Mean Temperature 72 °F -  
Max Temperature 86 °F 69 °F 86 °F (2012)
Min Temperature 59 °F 47 °F 25 °F (1991)
Cooling Degree Days 8    
Growing Degree Days 22 (Base 50)    
Moisture  
Dew Point 52 °F    
Average Humidity 53    
Maximum Humidity 88    
Minimum Humidity 25    
Precipitation  
Precipitation 0.00 in - - ()
Sea Level Pressure  
Sea Level Pressure 29.98 in    
Wind  
Wind Speed 11 mph (SSW)    
Max Wind Speed 18 mph    
Max Gust Speed 25 mph    
Visibility 10 miles    
Events      
Averages and records for this station are not official NWS values.
T = Trace of Precipitation, MM = Missing Value Source: NWS Daily Summary

Daily Weather History Graph

Daily Weather History Graph

Search for Another Location

Airport:

Trip Planner

Search our weather history database for the weather conditions in past years. The results will help you decide how hot, cold, wet, or windy it might be!

Date:

Astronomy

Nov. 02, 2012 Rise Set
Actual Time 7:52 AM CDT 6:43 PM CDT
Civil Twilight 7:26 AM CDT 7:08 PM CDT
Nautical Twilight 6:57 AM CDT 7:37 PM CDT
Astronomical Twilight 6:29 AM CDT 8:06 PM CDT
Moon 9:38 PM CDT (11/2) 11:06 AM CDT (11/2)
Length of Visible Light 11h 41m
Length of Day
10h 51m
Waning Gibbous, 87% of the Moon is Illuminated
Nov 2
Waning Gibbous
Nov 6
Last Quarter
Nov 13
New
Nov 20
First Quarter
Nov 28
Full

Hourly Weather History & Observations

Time (CDT) Temp. Heat Index Dew Point Humidity Pressure Visibility Wind Dir Wind Speed Gust Speed Precip Events Conditions
12:15 AM 68.0 °F - 48.2 °F 49% 30.00 in 10.0 mi SSW 12.7 mph - N/A   Clear
12:35 AM 68.0 °F - 50.0 °F 52% 30.00 in 10.0 mi SSW 13.8 mph - N/A   Clear
12:55 AM 68.0 °F - 50.0 °F 52% 30.00 in 10.0 mi SSW 11.5 mph - N/A   Clear
1:15 AM 66.2 °F - 50.0 °F 56% 30.00 in 10.0 mi SSW 11.5 mph - N/A   Clear
1:35 AM 66.2 °F - 50.0 °F 56% 29.99 in 10.0 mi SSW 12.7 mph - N/A   Clear
1:55 AM 64.4 °F - 50.0 °F 59% 29.99 in 10.0 mi SSW 11.5 mph - N/A   Clear
2:15 AM 62.6 °F - 50.0 °F 63% 29.99 in 10.0 mi SSW 10.4 mph - N/A   Clear
2:35 AM 62.6 °F - 50.0 °F 63% 29.98 in 10.0 mi SSW 10.4 mph - N/A   Clear
3:15 AM 62.6 °F - 50.0 °F 63% 29.98 in 10.0 mi SW 11.5 mph - N/A   Clear
3:35 AM 62.6 °F - 50.0 °F 63% 29.98 in 10.0 mi SW 11.5 mph - N/A   Clear
3:55 AM 62.6 °F - 51.8 °F 68% 29.98 in 10.0 mi SSW 10.4 mph - N/A   Clear
4:15 AM 62.6 °F - 51.8 °F 68% 29.98 in 10.0 mi SW 8.1 mph - N/A   Clear
4:35 AM 62.6 °F - 51.8 °F 68% 29.98 in 10.0 mi SSW 5.8 mph - N/A   Clear
5:15 AM 59.0 °F - 51.8 °F 77% 29.99 in 10.0 mi Calm Calm - N/A   Clear
5:35 AM 60.8 °F - 53.6 °F 77% 29.99 in 10.0 mi South 5.8 mph - N/A   Clear
6:15 AM 62.6 °F - 55.4 °F 77% 29.99 in 10.0 mi SSW 6.9 mph - N/A   Clear
6:35 AM 62.6 °F - 55.4 °F 77% 29.99 in 10.0 mi SSW 8.1 mph - N/A   Clear
6:55 AM 60.8 °F - 53.6 °F 77% 29.99 in 10.0 mi SSW 8.1 mph - N/A   Clear
7:15 AM 60.8 °F - 53.6 °F 77% 29.99 in 10.0 mi SSW 8.1 mph - N/A   Clear
7:35 AM 60.8 °F - 55.4 °F 82% 30.00 in 10.0 mi SSW 6.9 mph - N/A   Clear
7:55 AM 59.0 °F - 55.4 °F 88% 30.00 in 10.0 mi SSW 9.2 mph - N/A   Clear
8:15 AM 60.8 °F - 55.4 °F 82% 30.00 in 10.0 mi SSW 9.2 mph - N/A   Clear
8:35 AM 60.8 °F - 55.4 °F 82% 30.01 in 10.0 mi SSW 9.2 mph - N/A   Clear
8:55 AM 62.6 °F - 55.4 °F 77% 30.01 in 10.0 mi SSW 10.4 mph - N/A   Clear
9:15 AM 64.4 °F - 55.4 °F 73% 30.02 in 10.0 mi SSW 12.7 mph 19.6 mph N/A   Clear
9:35 AM 68.0 °F - 55.4 °F 64% 30.02 in 10.0 mi SSW 13.8 mph 17.3 mph N/A   Clear
9:55 AM 69.8 °F - 55.4 °F 60% 30.02 in 10.0 mi SSW 16.1 mph 23.0 mph N/A   Clear
10:15 AM 69.8 °F - 55.4 °F 60% 30.03 in 10.0 mi SSW 18.4 mph 25.3 mph N/A   Clear
10:35 AM 71.6 °F - 55.4 °F 57% 30.02 in 10.0 mi SSW 18.4 mph 25.3 mph N/A   Clear
10:55 AM 73.4 °F - 55.4 °F 53% 30.03 in 10.0 mi SW 18.4 mph 25.3 mph N/A   Clear
11:15 AM 73.4 °F - 55.4 °F 53% 30.03 in 10.0 mi SSW 13.8 mph 21.9 mph N/A   Clear
11:35 AM 77.0 °F - 55.4 °F 47% 30.03 in 10.0 mi SSW 15.0 mph - N/A   Clear
11:55 AM 78.8 °F - 57.2 °F 47% 30.02 in 10.0 mi SSW 15.0 mph 20.7 mph N/A   Clear
12:15 PM 78.8 °F - 55.4 °F 44% 30.02 in 10.0 mi SSW 16.1 mph 21.9 mph N/A   Clear
12:35 PM 78.8 °F - 55.4 °F 44% 30.01 in 10.0 mi SSW 12.7 mph 17.3 mph N/A   Clear
12:55 PM 80.6 °F 80.5 °F 55.4 °F 42% 30.00 in 10.0 mi SSW 15.0 mph 21.9 mph N/A   Clear
1:15 PM 80.6 °F 80.3 °F 53.6 °F 39% 29.99 in 10.0 mi SW 12.7 mph - N/A   Clear
1:35 PM 82.4 °F 81.4 °F 53.6 °F 37% 29.98 in 10.0 mi SW 11.5 mph 18.4 mph N/A   Clear
1:55 PM 82.4 °F - 51.8 °F 35% 29.97 in 10.0 mi SW 13.8 mph - N/A   Clear
2:15 PM 82.4 °F - 51.8 °F 35% 29.96 in 10.0 mi SSW 11.5 mph 21.9 mph N/A   Clear
2:35 PM 84.2 °F - 50.0 °F 30% 29.95 in 10.0 mi South 10.4 mph 17.3 mph N/A   Clear
2:55 PM 84.2 °F - 50.0 °F 30% 29.94 in 10.0 mi SSW 15.0 mph 20.7 mph N/A   Clear
3:15 PM 84.2 °F - 50.0 °F 30% 29.93 in 10.0 mi South 10.4 mph 18.4 mph N/A   Clear
3:35 PM 84.2 °F - 46.4 °F 27% 29.93 in 10.0 mi SSW 10.4 mph 17.3 mph N/A   Clear
3:55 PM 84.2 °F - 46.4 °F 27% 29.92 in 10.0 mi South 9.2 mph - N/A   Clear
4:15 PM 84.2 °F - 46.4 °F 27% 29.92 in 10.0 mi South 10.4 mph 16.1 mph N/A   Clear
4:35 PM 86.0 °F - 46.4 °F 25% 29.92 in 10.0 mi SSW 13.8 mph 19.6 mph N/A   Clear
4:55 PM 84.2 °F - 44.6 °F 25% 29.92 in 10.0 mi SSW 11.5 mph 17.3 mph N/A   Clear
5:15 PM 84.2 °F - 46.4 °F 27% 29.92 in 10.0 mi South 9.2 mph - N/A   Clear
5:35 PM 82.4 °F - 46.4 °F 28% 29.91 in 10.0 mi South 9.2 mph - N/A   Clear
5:55 PM 82.4 °F - 46.4 °F 28% 29.91 in 10.0 mi South 8.1 mph - N/A   Clear
6:15 PM 80.6 °F - 46.4 °F 30% 29.91 in 10.0 mi South 9.2 mph - N/A   Clear
6:35 PM 78.8 °F - 46.4 °F 32% 29.92 in 10.0 mi South 6.9 mph - N/A   Clear
7:15 PM 73.4 °F - 46.4 °F 38% 29.92 in 10.0 mi South 6.9 mph - N/A   Clear
7:35 PM 71.6 °F - 46.4 °F 41% 29.93 in 10.0 mi South 6.9 mph - N/A   Clear
8:15 PM 69.8 °F - 48.2 °F 46% 29.94 in 10.0 mi South 5.8 mph - N/A   Clear
8:35 PM 69.8 °F - 48.2 °F 46% 29.94 in 10.0 mi South 5.8 mph - N/A   Clear
8:55 PM 69.8 °F - 50.0 °F 49% 29.95 in 10.0 mi South 8.1 mph - N/A   Clear
9:15 PM 68.0 °F - 50.0 °F 52% 29.95 in 10.0 mi South 8.1 mph - N/A   Clear
9:35 PM 68.0 °F - 51.8 °F 56% 29.96 in 10.0 mi South 8.1 mph - N/A   Clear
9:55 PM 69.8 °F - 51.8 °F 53% 29.96 in 10.0 mi South 9.2 mph - N/A   Clear
10:15 PM 69.8 °F - 53.6 °F 56% 29.97 in 10.0 mi South 9.2 mph - N/A   Clear
10:35 PM 69.8 °F - 53.6 °F 56% 29.97 in 10.0 mi South 8.1 mph - N/A   Clear
10:55 PM 69.8 °F - 53.6 °F 56% 29.97 in 10.0 mi South 9.2 mph - N/A   Clear
11:15 PM 69.8 °F - 53.6 °F 56% 29.97 in 10.0 mi South 10.4 mph - N/A   Clear
11:35 PM 68.0 °F - 53.6 °F 60% 29.97 in 10.0 mi SSW 10.4 mph - N/A   Clear